7M1JBF-13 Weather Reports


Display with metric or nautical units.
time (UTC)temp
F
wind
direction
speed
MPH
gust
MPH
rain 1hr
in
rain 24hr
in
rain mn
in
humidity
%
barometer
mb
20260502170340 49 303 0.0 0.0 0.00 0.00 0.00 94 1013.6
20260502164348 49 303 0.0 0.0 0.00 0.00 0.00 93 1013.7
20260502163352 49 303 0.0 0.0 0.00 0.00 0.00 92 1013.4
20260502162332 49 303 0.0 0.0 0.00 0.00 0.00 92 1013.5
20260502161343 49 303 0.0 0.0 0.00 0.00 0.00 91 1013.5
20260502160404 50 304 0.0 0.0 0.00 0.04 0.00 91 1013.5
20260502152332 50 303 0.0 0.0 0.00 0.04 0.00 89 1013.0
20260502151330 51 304 0.0 0.0 0.00 0.04 0.00 89 1013.0
20260502150402 51 303 0.0 0.0 0.00 0.24 0.01 88 1013.0
20260502130337 53 306 0.0 0.0 0.00 0.43 0.01 83 1012.0
20260502123324 55 306 0.0 0.0 0.00 0.43 0.01 80 1011.7
20260502122323 56 306 0.0 1.0 0.00 0.43 0.01 78 1011.7
20260502121333 56 306 0.0 0.0 0.00 0.43 0.01 78 1011.7
20260502120354 57 306 0.0 0.0 0.00 0.43 0.01 76 1011.6
20260502115326 58 306 0.0 0.0 0.00 0.43 0.01 73 1011.2
20260502114333 59 306 0.0 0.0 0.00 0.43 0.01 72 1010.9
20260502113333 60 306 0.0 1.0 0.00 0.43 0.01 71 1010.8
20260502112338 60 306 0.0 1.0 0.00 0.43 0.01 71 1010.7
20260502111331 60 306 0.0 0.0 0.00 0.43 0.01 69 1010.6
20260502110337 61 306 0.0 1.0 0.00 0.43 0.01 65 1010.3
20260502105339 62 262 0.0 1.0 0.00 0.43 0.01 63 1010.0
20260502104348 63 262 0.0 1.0 0.00 0.43 0.01 63 1009.8
20260502103326 63 262 0.0 1.0 0.00 0.43 0.01 61 1009.7
20260502102327 63 262 0.0 1.0 0.00 0.43 0.01 55 1009.8
20260502101326 63 266 0.0 1.0 0.00 0.43 0.01 57 1009.5
20260502100329 63 266 0.0 1.0 0.00 0.43 0.01 57 1009.5
20260502091346 67 232 0.0 0.0 0.00 0.43 0.01 55 1009.2
20260502090340 68 232 0.0 1.0 0.00 0.43 0.01 51 1008.9
20260502071331 78 242 2.0 11.0 0.00 0.43 0.01 30 1007.2
20260502070331 78 286 0.0 7.0 0.00 0.67 0.01 34 1007.0
20260502065359 78 279 2.0 8.0 0.00 0.67 0.01 30 1006.7
20260502064357 78 263 3.0 10.0 0.00 0.67 0.01 32 1006.6
20260502063335 78 284 5.0 16.0 0.00 0.67 0.01 30 1006.5
20260502062342 79 302 4.0 8.0 0.00 0.67 0.01 29 1006.3
20260502061341 79 279 2.0 9.0 0.00 0.67 0.01 30 1005.9
20260502060342 80 269 3.0 7.0 0.00 2.87 0.01 31 1005.6
20260502055355 80 278 1.0 10.0 0.00 2.87 0.01 32 1005.4
20260502054344 80 275 1.0 6.0 0.00 2.87 0.01 34 1005.4
20260502053341 80 83 3.0 6.0 0.00 2.87 0.01 31 1005.2
20260502052324 80 273 1.0 6.0 0.00 2.87 0.01 28 1005.1
20260502051324 80 238 3.0 8.0 0.00 2.87 0.01 29 1004.8
20260502050412 80 284 1.0 8.0 0.00 2.87 0.01 34 1004.8
20260502045330 81 275 3.0 8.0 0.00 4.17 0.01 30 1004.5
20260502044348 81 277 1.0 6.0 0.00 4.17 0.01 32 1004.5
20260502043331 81 279 1.0 3.0 0.00 4.17 0.01 37 1004.3
20260502042352 80 212 1.0 8.0 0.00 4.17 0.01 33 1004.1
20260502041338 80 301 2.0 10.0 0.00 4.17 0.01 33 1004.1
20260502040335 81 124 1.0 6.0 0.00 1.08 0.01 33 1003.8
20260502035346 80 147 1.0 6.0 0.00 1.08 0.01 31 1003.6
20260502034342 79 273 1.0 5.0 0.00 1.08 0.01 31 1003.5
20260502033347 78 260 3.0 11.0 0.00 1.08 0.01 26 1003.4
20260502032324 78 267 3.0 15.0 0.00 1.08 0.01 29 1003.5
20260502031342 78 282 2.0 11.0 0.00 1.08 0.01 32 1003.1
20260502030410 78 253 5.0 12.0 0.00 1.08 0.01 29 1003.3
20260502025327 78 291 3.0 11.0 0.00 2.05 0.01 34 1003.1
20260502024326 78 275 5.0 12.0 0.00 2.05 0.01 41 1002.9
20260502023330 77 286 1.0 2.0 0.00 2.05 0.01 44 1002.9
20260502022324 76 33 0.0 2.0 0.00 2.05 0.01 55 1002.7
20260502021332 74 265 0.0 4.0 0.00 2.05 0.01 56 1002.6
20260502020329 73 261 0.0 2.0 0.00 2.31 0.01 53 1002.6
20260502015329 73 359 1.0 3.0 0.00 2.31 0.01 53 1002.6
20260502014337 72 321 1.0 5.0 0.00 2.31 0.01 62 1002.5
20260502013336 72 52 1.0 3.0 0.00 2.31 0.01 60 1002.4
20260502012330 71 69 0.0 5.0 0.00 2.31 0.01 65 1002.3
20260502011402 71 33 1.0 5.0 0.00 2.31 0.01 62 1002.0
20260502010335 71 315 1.0 6.0 0.00 2.50 0.01 59 1001.7
20260502005334 70 267 0.0 7.0 0.00 2.50 0.01 63 1001.7
20260502004342 70 275 3.0 10.0 0.00 2.50 0.01 60 1001.5
20260502003346 69 296 4.0 12.0 0.00 2.50 0.01 55 1001.2
20260502002402 69 291 4.0 10.0 0.00 2.50 0.01 55 1001.2
20260502001349 69 324 4.0 9.0 0.00 2.50 0.01 53 1001.2
20260502000349 69 297 3.0 10.0 0.00 2.74 0.01 53 1001.1
20260501235347 68 279 4.0 10.0 0.00 2.74 0.01 51 1001.1
20260501234347 67 294 3.0 11.0 0.00 2.74 0.01 55 1000.9
20260501233346 66 298 4.0 9.0 0.00 2.74 0.01 57 1000.8
20260501232327 65 294 3.0 9.0 0.00 2.74 0.01 62 1000.5
20260501231326 64 280 2.0 10.0 0.00 2.74 0.01 66 1000.3
20260501230341 64 277 2.0 6.0 0.00 2.87 0.01 68 1000.1
20260501225340 63 19 0.0 0.0 0.00 2.87 0.01 70 1000.2
20260501224340 62 321 1.0 3.0 0.00 2.87 0.01 73 1000.3
20260501223349 61 310 0.0 4.0 0.00 2.87 0.01 74 1000.2
20260501222325 60 30 1.0 4.0 0.00 2.87 0.01 74 999.9
20260501221338 58 336 0.0 4.0 0.00 2.87 0.01 80 999.7
20260501220326 56 290 0.0 3.0 0.00 2.90 0.01 84 999.3
20260501215325 54 287 0.0 1.0 0.00 2.90 0.01 89 999.3
20260501214356 54 287 0.0 0.0 0.00 2.90 0.01 90 999.1
20260501213334 54 287 0.0 1.0 0.00 2.90 0.01 88 999.0
20260501212337 54 287 0.0 1.0 0.00 2.90 0.01 85 999.1
20260501210326 55 269 0.0 3.0 0.00 3.03 0.01 81 998.9
20260501205349 56 115 1.0 5.0 0.00 3.03 0.01 75 998.5
20260501204327 56 244 2.0 8.0 0.00 3.03 0.01 73 998.8
20260501203326 56 142 3.0 7.0 0.00 3.03 0.01 77 998.2
20260501202325 57 258 2.0 10.0 0.00 3.03 0.01 75 998.8
20260501201338 56 275 0.0 7.0 0.00 3.03 0.01 83 998.6
20260501200335 56 273 1.0 4.0 0.00 3.15 0.01 84 997.9
20260501195334 56 279 0.0 1.0 0.00 3.15 0.01 84 997.0
20260501194322 56 291 1.0 4.0 0.00 3.15 0.01 85 996.3
20260501193338 55 258 1.0 6.0 0.00 3.15 0.01 85 995.7
20260501192344 56 277 1.0 9.0 0.00 3.15 0.01 85 995.5
20260501191358 54 294 3.0 8.0 0.00 3.15 0.01 89 995.3
20260501190333 54 294 0.0 1.0 0.00 3.17 0.01 91 994.8
20260501185345 54 293 0.0 12.0 0.00 3.17 0.01 89 994.6
20260501184342 55 317 5.0 10.0 0.00 3.17 0.01 86 994.0
20260501183351 55 282 4.0 8.0 0.00 3.17 0.01 86 993.9
20260501182323 55 303 4.0 9.0 0.00 3.17 0.01 87 993.6
20260501181411 55 294 2.0 10.0 0.00 3.17 0.01 88 993.5
20260501180349 55 268 3.0 11.0 0.00 3.17 0.01 87 993.2
20260501175327 55 318 5.0 10.0 0.00 3.20 0.01 86 993.1
20260501174326 55 299 5.0 12.0 0.00 3.20 0.01 86 992.9
20260501173326 53 344 2.0 6.0 0.00 3.20 0.01 92 992.8
20260501172337 53 289 1.0 7.0 0.00 3.20 0.01 93 992.8
20260501171332 52 284 0.0 1.0 0.00 3.20 0.01 96 992.8